Location: Dackenheim
(49.5215°N, 8.1854°E)
Time: 22:38:21
(UTC+00:00)

AO-85 - Visible Passes

Search period start: 14 March 2026 00:00
Search period end: 24 March 2026 00:00
Orbit: 507 x 686 km, 64.8° (Epoch: 14 March)

Date Brightness Start Highest point End Pass type
(mag) Time Alt. Az. Time Alt. Az. Time Alt. Az.
14 Mar ? 03:55:24 19° S 03:57:58 46° ESE 04:01:43 10° NE visible
15 Mar ? 02:29:00 10° ESE 02:29:15 10° ESE 02:29:53 10° ESE visible
15 Mar ? 04:05:41 24° SSW 04:07:59 81° SE 04:11:54 10° NE visible
16 Mar ? 02:39:11 18° ESE 02:39:11 18° ESE 02:41:47 10° ENE visible
16 Mar ? 04:15:51 24° WSW 04:18:05 60° NW 04:21:56 10° NE visible
17 Mar ? 02:49:16 30° ESE 02:49:16 30° ESE 02:52:24 10° ENE visible
17 Mar ? 04:25:55 19° W 04:28:14 37° NW 04:31:52 10° NNE visible
18 Mar ? 02:59:15 50° ESE 02:59:15 50° ESE 03:02:41 10° NE visible
18 Mar ? 04:35:54 14° W 04:38:28 25° NW 04:41:45 10° NNE visible
19 Mar ? 03:09:10 77° NE 03:09:10 77° NE 03:12:47 10° NE visible
19 Mar ? 04:45:58 10° WNW 04:48:46 18° NNW 04:51:33 10° NNE visible
20 Mar ? 01:42:21 12° ENE 01:42:21 12° ENE 01:42:47 10° ENE visible
20 Mar ? 03:19:00 54° NW 03:19:00 54° NW 03:22:46 10° NNE visible
20 Mar ? 04:57:01 10° WNW 04:59:08 14° NNW 05:01:15 10° N visible
21 Mar ? 01:52:09 17° ENE 01:52:09 17° ENE 01:53:16 10° NE visible
21 Mar ? 03:28:48 33° NW 03:29:05 34° NW 03:32:40 10° NNE visible
22 Mar ? 02:01:53 23° NE 02:01:53 23° NE 02:03:28 10° NE visible
22 Mar ? 03:38:32 22° NW 03:39:18 23° NW 03:42:28 10° NNE visible
23 Mar ? 02:11:35 28° NE 02:11:35 28° NE 02:13:31 10° NE visible
23 Mar ? 03:48:14 15° NW 03:49:34 17° NNW 03:52:13 10° NNE visible
